Regional Weather Roundup
Issued by NWS Newport/Morehead, NC

Current Version | Previous Version | Graphics & Text | Print | Product List | Glossary On
Versions: 1 2 3 4 5 6 7 8 9 10 11 12 13 14 15 16 17 18 19 20 21 22 23 24 25 26 27 28 29 30 31 32 33 34 35 36 37 38 39 40 41 42 43 44 45 46 47 48 49 50
000 ASUS42 KMHX 290625 RWRMHX WEATHER ROUNDUP FOR EASTERN NORTH CAROLINA NATIONAL WEATHER SERVICE NEWPORT/MOREHEAD CITY NC 200 AM EDT SAT JUL 29 2017 NOTE: "FAIR" INDICATES FEW OR NO CLOUDS BELOW 12,000 FEET WITH NO SIGNIFICANT WEATHER AND/OR OBSTRUCTIONS TO VISIBILITY NCZ015>017-031-032-045>047-102-103-290700- NORTH COAST CITY SKY/WX TMP DP RH WIND PRES REMARKS EDENTON LGT RAIN 76 73 93 CALM 29.67F ELIZABETH CITY CLOUDY 78 78 100 SW12 29.68F KITTY HAWK RAIN 78 78 100 SW5 29.67F MANTEO LGT RAIN 78 76 93 SW15 29.69S $$ NCZ045>047-081-094-103-104-290700- CENTRAL COAST CITY SKY/WX TMP DP RH WIND PRES REMARKS FRISCO CLOUDY 81 78 91 SW10 29.70F $$ NCZ095-097-098-100-101-290700- SOUTHERN COAST CITY SKY/WX TMP DP RH WIND PRES REMARKS BEAUFORT CLOUDY 82 80 94 SW15 29.70F CEDAR ISLAND NOT AVBL JACKSONVILLE CLOUDY 80 78 94 SW6 29.69F PINEY ISLAND CLOUDY N/A N/A N/A S7 29.69F WILMINGTON CLOUDY 78 75 90 SW7 29.71F $$ NCZ011>013-027>030-043-044-078>080-089-090>093-098-290700- COASTAL PLAIN CITY SKY/WX TMP DP RH WIND PRES REMARKS AHOSKIE LGT RAIN 71 70 99 CALM 29.65F CLINTON MOCLDY 79 78 96 S6 29.69F ELIZABETHTOWN NOT AVBL GOLDSBORO NOT AVBL GREENVILLE CLOUDY 75 75 100 S3 29.70F HAVELOCK CLOUDY 81 77 88 SW10 29.70 KENANSVILLE CLOUDY 79 77 94 S3 29.68F FOG KINSTON CLOUDY 80 76 89 S8 29.68F NEW BERN TSTM 76 74 93 W8 29.71S FOG RICHLANDS CLOUDY 75 74 96 CALM 29.70F ROCKY MOUNT MOCLDY 73 73 100 S3 29.67F WASHINGTON CLOUDY 76 74 95 CALM 29.68F WHITEVILLE CLOUDY 80 73 81 SW7 29.71F $$ AMZ130-135-150-152-154-156-158-170-250-252-270-ANZ085-086-088-633-658-670-290700- MARINE OBSERVATIONS STATION/POSITION TIME TEMP WIND PRES WAVE SWELL AIR SEA DIR/SP/G HT/PER HT/PER (UTC) (F) (DEG/KT/KT) (MB) (FT/S) (FT/S) CHESAPEAKE LIGHT NOT AVBL 64 E VA BEACH 0550 78 76 200/ 14/ 16 1005.0 3/ 4 2/ 8 DUCK 0600 79 62 210/ 14/ 17 1004.4 2 E DUCK 0600 71 N/A 2/ 8 OREGON INLET 0600 80 79 220/ 17/ 21 1005.1 13E OREGON INLT 0548 77 N/A 2/ 9 2/ 9 HATTERAS CG 0600 79 80 230/ 9/ 12 1005.5 DIAMOND BUOY 0550 82 83 240/ 19/ 21 1005.4 5/ 5 2/ 8 CAPE LOOKOUT 0600 81 220/ 9/ 12 1005.3 BEAUFORT LAB 0600 82 80 230/ 6/ 11 1005.0 30 SE NEW RVR IN 0608 82 84 240/ 17/ 23 1005.9 30 SE NEW RVR IN 0543 84 N/A 5/ 5 27 SE WRIGHTSVLE 0608 83 83 220/ 17/ 23 1005.9 5 SE WRIGHTSVLE 0608 82 82 220/ 14/ 19 1005.8 225 S CAPE HAT 0550 84 83 210/ 21/ 27 1010.0 6/ 6 2/10 41 SE CHARLESTON 0610 83 81 220/ 16/ 21 1007.4 $$

USA.gov is the U.S. government's official web portal to all federal, state and local government web resources and services.